Location: Cheching
(60.0667°N, 164.2167°W)
Time: 14:00:37
(UTC+00:00)

LilacSat-2 - Pass Details

Date: 18 January 2021
Orbit: 512 x 533 km, 97.5° (Epoch: 05 March)

Event Time Altitude Azimuth Distance (km) Brightness Sun altitude
Rises 03:32:57 0° 164° (SSE) 2,630 ? -6.7°
Reaches altitude 10° 03:35:02 10° 165° (SSE) 1,750 ? -6.9°
Maximum altitude 03:38:49 83° 255° (WSW) 533 ? -7.3°
Drops below altitude 10° 03:42:39 10° 343° (NNW) 1,776 ? -7.8°
Sets 03:44:46 0° 344° (NNW) 2,673 ? -8.0°
